| time (UTC) | temp F | wind direction | speed knots | gust knots | rain 1hr in | rain 24hr in | rain mn in | humidity % | barometer mb |
| 20260507224549 | 52 | 38 | 0.0 | 0.0 | 0.00 | 0.05 | 0.00 | 70 | 1006.3 |
| 20260507223047 | 52 | 38 | 0.0 | 3.5 | 0.00 | 0.05 | 0.00 | 72 | 1006.4 |
| 20260507221544 | 52 | 42 | 1.7 | 3.5 | 0.00 | 0.05 | 0.00 | 73 | 1006.3 |
| 20260507220040 | 53 | 29 | 0.9 | 4.3 | 0.00 | 0.05 | 0.00 | 70 | 1006.3 |
| 20260507214602 | 53 | 35 | 2.6 | 5.2 | 0.00 | 0.05 | 0.05 | 72 | 1006.1 |
| 20260507213040 | 54 | 36 | 0.9 | 2.6 | 0.00 | 0.05 | 0.05 | 73 | 1005.9 |
| 20260507211538 | 54 | 36 | 2.6 | 3.5 | 0.00 | 0.05 | 0.05 | 74 | 1005.9 |
| 20260507210049 | 54 | 16 | 0.9 | 1.7 | 0.00 | 0.05 | 0.05 | 73 | 1005.9 |
| 20260507204534 | 54 | 15 | 0.9 | 1.7 | 0.00 | 0.05 | 0.05 | 75 | 1005.7 |
| 20260507203044 | 55 | 261 | 0.0 | 2.6 | 0.00 | 0.05 | 0.05 | 76 | 1005.8 |
| 20260507201540 | 56 | 43 | 1.7 | 2.6 | 0.00 | 0.05 | 0.05 | 76 | 1005.6 |
| 20260507200036 | 57 | 126 | 0.9 | 1.7 | 0.00 | 0.05 | 0.05 | 76 | 1005.3 |
| 20260507194559 | 59 | 126 | 0.9 | 1.7 | 0.00 | 0.05 | 0.05 | 71 | 1005.0 |
| 20260507193035 | 59 | 126 | 0.9 | 1.7 | 0.00 | 0.05 | 0.05 | 67 | 1004.9 |
| 20260507191533 | 60 | 187 | 0.0 | 0.0 | 0.00 | 0.05 | 0.05 | 64 | 1004.6 |
| 20260507190033 | 61 | 187 | 0.0 | 0.9 | 0.00 | 0.05 | 0.05 | 63 | 1004.4 |
| 20260507184534 | 62 | 187 | 0.9 | 1.7 | 0.00 | 0.16 | 0.05 | 62 | 1004.4 |
| 20260507183035 | 63 | 187 | 0.0 | 1.7 | 0.00 | 0.16 | 0.05 | 61 | 1004.2 |
| 20260507181529 | 64 | 206 | 1.7 | 3.5 | 0.00 | 0.16 | 0.05 | 60 | 1004.2 |
| 20260507180033 | 65 | 201 | 1.7 | 3.5 | 0.00 | 0.16 | 0.05 | 60 | 1004.0 |
| 20260507174536 | 66 | 230 | 1.7 | 6.1 | 0.00 | 0.16 | 0.05 | 56 | 1003.8 |
| 20260507173035 | 66 | 202 | 2.6 | 5.2 | 0.00 | 0.16 | 0.05 | 56 | 1003.7 |
| 20260507171527 | 67 | 215 | 2.6 | 5.2 | 0.00 | 0.16 | 0.05 | 56 | 1003.7 |
| 20260507170026 | 68 | 217 | 0.9 | 6.1 | 0.00 | 0.16 | 0.05 | 50 | 1003.6 |
| 20260507164526 | 68 | 253 | 0.0 | 5.2 | 0.00 | 0.16 | 0.05 | 46 | 1003.6 |
| 20260507163026 | 68 | 249 | 1.7 | 5.2 | 0.00 | 0.16 | 0.05 | 49 | 1003.6 |
| 20260507161532 | 67 | 210 | 0.9 | 7.0 | 0.00 | 0.16 | 0.05 | 49 | 1003.6 |
| 20260507160025 | 69 | 213 | 1.7 | 7.0 | 0.00 | 0.16 | 0.05 | 52 | 1003.6 |
| 20260507154531 | 68 | 197 | 0.0 | 6.1 | 0.00 | 0.17 | 0.05 | 48 | 1003.6 |
| 20260507153035 | 69 | 139 | 0.0 | 2.6 | 0.00 | 0.17 | 0.05 | 47 | 1003.6 |
| 20260507151521 | 68 | 218 | 6.1 | 8.7 | 0.00 | 0.17 | 0.05 | 47 | 1003.6 |
| 20260507150019 | 68 | 276 | 2.6 | 7.0 | 0.00 | 0.17 | 0.05 | 49 | 1003.6 |
| 20260507144518 | 68 | 211 | 3.5 | 7.8 | 0.00 | 0.55 | 0.05 | 51 | 1003.8 |
| 20260507143022 | 67 | 230 | 0.9 | 9.6 | 0.00 | 0.55 | 0.05 | 52 | 1003.8 |
| 20260507141515 | 67 | 264 | 1.7 | 6.1 | 0.00 | 0.55 | 0.05 | 53 | 1003.9 |
| 20260507140013 | 66 | 192 | 0.0 | 4.3 | 0.00 | 0.55 | 0.05 | 54 | 1004.1 |
| 20260507134513 | 67 | 249 | 7.0 | 10.4 | 0.00 | 0.70 | 0.05 | 60 | 1004.1 |
| 20260507133011 | 66 | 271 | 2.6 | 8.7 | 0.00 | 0.70 | 0.05 | 59 | 1004.2 |
| 20260507131615 | 66 | 290 | 1.7 | 10.4 | 0.00 | 0.70 | 0.05 | 56 | 1004.3 |
| 20260507130108 | 66 | 259 | 7.8 | 11.3 | 0.00 | 0.70 | 0.05 | 63 | 1004.5 |
| 20260507124510 | 65 | 248 | 6.1 | 9.6 | 0.00 | 0.70 | 0.05 | 60 | 1004.5 |
| 20260507123005 | 63 | 219 | 1.7 | 8.7 | 0.00 | 0.70 | 0.05 | 64 | 1004.6 |
| 20260507121503 | 64 | 234 | 3.5 | 7.0 | 0.00 | 0.70 | 0.05 | 62 | 1004.6 |
| 20260507120002 | 63 | 325 | 2.6 | 6.1 | 0.00 | 0.72 | 0.05 | 64 | 1004.7 |
| 20260507114501 | 62 | 288 | 1.7 | 3.5 | 0.00 | 0.72 | 0.05 | 68 | 1004.9 |
| 20260507113002 | 62 | 277 | 4.3 | 6.1 | 0.00 | 0.72 | 0.05 | 70 | 1005.0 |
| 20260507111503 | 62 | 311 | 1.7 | 5.2 | 0.00 | 0.72 | 0.05 | 66 | 1005.2 |
| 20260507104600 | 63 | 251 | 0.0 | 6.1 | 0.00 | 0.72 | 0.05 | 66 | 1005.4 |
| 20260507103058 | 63 | 180 | 1.7 | 7.0 | 0.00 | 0.72 | 0.05 | 66 | 1005.6 |
| 20260507101557 | 62 | 359 | 0.9 | 4.3 | 0.00 | 0.72 | 0.05 | 67 | 1005.6 |
| 20260507100053 | 61 | 145 | 0.0 | 7.0 | 0.00 | 0.72 | 0.05 | 69 | 1005.7 |
| 20260507094552 | 61 | 236 | 3.5 | 8.7 | 0.00 | 0.72 | 0.05 | 70 | 1005.7 |
| 20260507093054 | 61 | 205 | 2.6 | 7.0 | 0.00 | 0.72 | 0.05 | 69 | 1005.7 |
| 20260507091548 | 61 | 238 | 0.9 | 6.1 | 0.00 | 0.72 | 0.05 | 69 | 1005.7 |
| 20260507090044 | 60 | 258 | 1.7 | 7.0 | 0.00 | 0.72 | 0.05 | 70 | 1005.7 |
| 20260507084543 | 59 | 284 | 0.9 | 6.1 | 0.00 | 0.87 | 0.05 | 70 | 1005.7 |
| 20260507083129 | 59 | 307 | 0.9 | 3.5 | 0.00 | 0.87 | 0.05 | 72 | 1005.6 |
| 20260507081524 | 59 | 47 | 1.7 | 3.5 | 0.00 | 0.87 | 0.05 | 72 | 1005.7 |
| 20260507080122 | 58 | 68 | 1.7 | 4.3 | 0.00 | 0.87 | 0.05 | 73 | 1005.6 |
| 20260507074528 | 58 | 32 | 0.9 | 4.3 | 0.00 | 0.91 | 0.05 | 77 | 1005.4 |
| 20260507073034 | 57 | 51 | 2.6 | 4.3 | 0.00 | 0.91 | 0.05 | 77 | 1005.5 |
| 20260507070059 | 55 | 13 | 0.9 | 2.6 | 0.00 | 0.91 | 0.05 | 77 | 1005.4 |
| 20260507063105 | 53 | 22 | 1.7 | 4.3 | 0.00 | 0.91 | 0.05 | 74 | 1005.0 |
| 20260507061535 | 52 | 10 | 0.9 | 3.5 | 0.00 | 0.91 | 0.05 | 72 | 1004.9 |
| 20260507060158 | 52 | 18 | 1.7 | 4.3 | 0.00 | 0.91 | 0.05 | 72 | 1004.9 |
| 20260507054528 | 52 | 332 | 1.7 | 5.2 | 0.00 | 0.92 | 0.05 | 73 | 1004.8 |
| 20260507053149 | 51 | 36 | 2.6 | 6.1 | 0.00 | 0.92 | 0.05 | 74 | 1004.5 |
| 20260507051526 | 50 | 23 | 2.6 | 6.1 | 0.00 | 0.92 | 0.05 | 72 | 1004.4 |
| 20260507050036 | 50 | 15 | 3.5 | 6.1 | 0.00 | 0.92 | 0.05 | 71 | 1004.2 |
| 20260507044600 | 50 | 22 | 2.6 | 7.0 | 0.00 | 0.94 | 0.05 | 72 | 1004.1 |
| 20260507043053 | 50 | 13 | 3.5 | 6.1 | 0.00 | 0.94 | 0.05 | 72 | 1003.9 |
| 20260507041611 | 50 | 17 | 3.5 | 6.1 | 0.00 | 0.94 | 0.05 | 71 | 1003.9 |
| 20260507040010 | 50 | 19 | 3.5 | 7.8 | 0.00 | 0.94 | 0.05 | 71 | 1003.8 |
| 20260507034512 | 50 | 28 | 2.6 | 7.8 | 0.02 | 0.95 | 0.05 | 70 | 1003.8 |
| 20260507033008 | 50 | 14 | 3.5 | 7.0 | 0.02 | 0.95 | 0.05 | 70 | 1003.9 |
| 20260507031530 | 50 | 36 | 5.2 | 7.8 | 0.02 | 0.95 | 0.05 | 70 | 1003.7 |
| 20260507024653 | 50 | 31 | 2.6 | 6.1 | 0.00 | 0.94 | 0.03 | 70 | 1003.7 |
| 20260507023044 | 50 | 48 | 2.6 | 7.0 | 0.00 | 0.94 | 0.03 | 71 | 1003.7 |
| 20260507021538 | 50 | 36 | 4.3 | 6.1 | 0.01 | 0.94 | 0.03 | 70 | 1003.7 |
| 20260507020145 | 50 | 9 | 2.6 | 3.5 | 0.01 | 0.94 | 0.03 | 70 | 1003.9 |
| 20260507014533 | 50 | 325 | 0.9 | 2.6 | 0.01 | 0.94 | 0.03 | 70 | 1003.9 |
| 20260507013056 | 50 | 32 | 2.6 | 7.0 | 0.02 | 0.94 | 0.02 | 70 | 1003.6 |
| 20260507011558 | 50 | 348 | 3.5 | 7.0 | 0.02 | 0.94 | 0.02 | 70 | 1003.6 |
| 20260507010044 | 50 | 32 | 4.3 | 6.1 | 0.02 | 0.94 | 0.02 | 70 | 1003.5 |
| 20260507004615 | 51 | 15 | 1.7 | 2.6 | 0.02 | 0.94 | 0.02 | 70 | 1003.5 |
| 20260507003153 | 51 | 38 | 0.0 | 2.6 | 0.01 | 0.93 | 0.01 | 70 | 1003.5 |
| 20260507001525 | 51 | 20 | 0.0 | 2.6 | 0.01 | 0.93 | 0.01 | 70 | 1003.5 |
| 20260507000020 | 51 | 29 | 1.7 | 5.2 | 0.01 | 0.93 | 0.01 | 70 | 1003.4 |
| 20260506234538 | 51 | 22 | 2.6 | 7.0 | 0.00 | 0.92 | 0.00 | 71 | 1003.5 |
| 20260506231602 | 51 | 11 | 3.5 | 6.1 | 0.00 | 0.92 | 0.00 | 70 | 1003.4 |
| 20260506231514 | 51 | 7 | 3.5 | 7.8 | 0.00 | 0.92 | 0.00 | 70 | 1003.4 |
| 20260506230059 | 51 | 353 | 4.3 | 7.0 | 0.00 | 0.92 | 0.00 | 70 | 1003.1 |